THA303 RJFF-ROAH

Flight info

Callsign THA303
Flight time 1h 19m
Altitude 38000
Route YAMGA VEMRA Y506 HKC Y45 ONC Y525 IHEYA
Aircraft A346/H-SDE2E3FGHIJ3J4J5M1RWXY/LB1D1

Departure

Time 2026-04-25 16:43
Airport Fukuoka Airport (RJFF)

Arrival

Time 2026-04-25 18:02
Airport Naha International Airport (ROAH)
Time Latitude Longitude Altitude Speed Heading
2026-04-25 16:21 33.58505 130.44585 38 ft 0 kts 239°
2026-04-25 16:32 33.58509 130.44592 38 ft 2 kts 238°
2026-04-25 16:32 33.58516 130.44608 38 ft 2 kts 240°
2026-04-25 16:32 33.58524 130.44623 38 ft 2 kts 240°
2026-04-25 16:32 33.58531 130.44638 38 ft 2 kts 250°
2026-04-25 16:33 33.58533 130.44656 38 ft 2 kts 279°
2026-04-25 16:33 33.58528 130.44673 37 ft 2 kts 301°
2026-04-25 16:33 33.58519 130.44685 37 ft 2 kts 322°
2026-04-25 16:33 33.58508 130.44693 37 ft 2 kts 334°
2026-04-25 16:34 33.58494 130.44702 37 ft 2 kts 332°
2026-04-25 16:34 33.58485 130.44707 37 ft 0 kts 330°
2026-04-25 16:34 33.58484 130.44708 37 ft 0 kts 330°
2026-04-25 16:35 33.58485 130.44708 37 ft 0 kts 330°
2026-04-25 16:36 33.58490 130.44704 37 ft 2 kts 330°
2026-04-25 16:36 33.58534 130.44667 38 ft 17 kts 324°
2026-04-25 16:37 33.58640 130.44586 39 ft 18 kts 330°
2026-04-25 16:37 33.58761 130.44504 39 ft 20 kts 330°
2026-04-25 16:37 33.58873 130.44444 37 ft 8 kts 17°
2026-04-25 16:37 33.58930 130.44522 35 ft 21 kts 54°
2026-04-25 16:38 33.59002 130.44557 33 ft 5 kts 340°
2026-04-25 16:38 33.59078 130.44513 31 ft 18 kts 330°
2026-04-25 16:38 33.59219 130.44415 27 ft 28 kts 328°
2026-04-25 16:38 33.59407 130.44282 23 ft 31 kts 336°
2026-04-25 16:39 33.59569 130.44241 21 ft 0 kts 352°
2026-04-25 16:39 33.59584 130.44238 21 ft 6 kts 358°
2026-04-25 16:39 33.59644 130.44266 20 ft 11 kts 40°
2026-04-25 16:39 33.59660 130.44330 18 ft 8 kts 125°
2026-04-25 16:40 33.59619 130.44369 19 ft 3 kts 147°
2026-04-25 16:40 33.59618 130.44371 19 ft 0 kts 147°
2026-04-25 16:43 33.59581 130.44397 20 ft 28 kts 149°
2026-04-25 16:43 33.59145 130.44694 28 ft 113 kts 150°
2026-04-25 16:43 33.58237 130.45316 48 ft 182 kts 150°
2026-04-25 16:43 33.57176 130.46017 930 ft 174 kts 152°
2026-04-25 16:44 33.56078 130.46713 1587 ft 189 kts 152°
2026-04-25 16:44 33.54867 130.47455 2247 ft 207 kts 153°
2026-04-25 16:44 33.53543 130.48263 2912 ft 225 kts 153°
2026-04-25 16:44 33.52064 130.49173 3606 ft 247 kts 152°
2026-04-25 16:45 33.50505 130.50134 4378 ft 264 kts 152°
2026-04-25 16:45 33.48847 130.51161 5207 ft 271 kts 152°
2026-04-25 16:45 33.47169 130.52202 6046 ft 276 kts 152°
2026-04-25 16:45 33.45456 130.53267 6923 ft 280 kts 152°
2026-04-25 16:46 33.43721 130.54344 7792 ft 283 kts 153°
2026-04-25 16:46 33.42040 130.55388 8614 ft 287 kts 153°
2026-04-25 16:46 33.40271 130.56485 9461 ft 290 kts 153°
2026-04-25 16:46 33.39080 130.57222 10020 ft 293 kts 153°
2026-04-25 16:47 33.36612 130.58749 10888 ft 307 kts 153°
2026-04-25 16:47 33.34664 130.59955 11312 ft 326 kts 153°
2026-04-25 16:47 33.32556 130.61258 11732 ft 345 kts 153°
2026-04-25 16:47 33.30371 130.62611 12129 ft 364 kts 153°
2026-04-25 16:48 33.28051 130.64049 12548 ft 382 kts 153°
2026-04-25 16:48 33.25670 130.65526 13250 ft 391 kts 154°
2026-04-25 16:48 33.23242 130.67044 14099 ft 395 kts 154°
2026-04-25 16:48 33.20794 130.68573 14911 ft 400 kts 154°
2026-04-25 16:49 33.18339 130.70099 15665 ft 405 kts 154°
2026-04-25 16:49 33.15798 130.71670 16418 ft 411 kts 155°
2026-04-25 16:49 33.13237 130.73242 17151 ft 415 kts 157°
2026-04-25 16:49 33.10522 130.74393 17853 ft 417 kts 170°
2026-04-25 16:50 33.07634 130.74811 18567 ft 417 kts 182°
2026-04-25 16:50 33.04785 130.74591 19270 ft 419 kts 188°
2026-04-25 16:50 33.01854 130.74206 19960 ft 423 kts 189°
2026-04-25 16:50 32.98929 130.73810 20626 ft 427 kts 189°
2026-04-25 16:51 32.95976 130.73424 21281 ft 432 kts 189°
2026-04-25 16:51 32.93012 130.73053 21910 ft 436 kts 188°
2026-04-25 16:51 32.89984 130.72682 22528 ft 440 kts 188°
2026-04-25 16:51 32.87901 130.72429 22942 ft 443 kts 188°
2026-04-25 16:52 32.83828 130.71938 23733 ft 448 kts 188°
2026-04-25 16:52 32.80690 130.71558 24310 ft 452 kts 188°
2026-04-25 16:52 32.77583 130.71182 24857 ft 456 kts 188°
2026-04-25 16:52 32.74411 130.70798 25401 ft 460 kts 189°
2026-04-25 16:53 32.67999 130.70021 26455 ft 468 kts 189°
2026-04-25 16:53 32.64772 130.69630 26952 ft 471 kts 189°
2026-04-25 16:53 32.61520 130.69237 27505 ft 473 kts 189°
2026-04-25 16:54 32.58270 130.68845 28208 ft 471 kts 189°
2026-04-25 16:54 32.55026 130.68454 28903 ft 468 kts 189°
2026-04-25 16:54 32.51812 130.68066 29524 ft 467 kts 189°
2026-04-25 16:54 32.48589 130.67677 30089 ft 466 kts 189°
2026-04-25 16:55 32.45387 130.67290 30627 ft 466 kts 189°
2026-04-25 16:55 32.42130 130.66898 31160 ft 465 kts 189°
2026-04-25 16:55 32.38926 130.66510 31664 ft 464 kts 189°
2026-04-25 16:55 32.35737 130.66126 32156 ft 463 kts 189°
2026-04-25 16:56 32.32527 130.65738 32639 ft 462 kts 189°
2026-04-25 16:56 32.29339 130.65355 33095 ft 461 kts 189°
2026-04-25 16:56 32.26169 130.64973 33519 ft 460 kts 189°
2026-04-25 16:56 32.23002 130.64595 33925 ft 460 kts 189°
2026-04-25 16:57 32.19825 130.64214 34319 ft 459 kts 189°
2026-04-25 16:57 32.17706 130.63960 34574 ft 459 kts 189°
2026-04-25 16:57 32.13518 130.63460 35075 ft 458 kts 189°
2026-04-25 16:57 32.10345 130.63080 35446 ft 457 kts 189°
2026-04-25 16:58 32.07207 130.62705 35790 ft 456 kts 189°
2026-04-25 16:58 32.04055 130.62329 36109 ft 455 kts 189°
2026-04-25 16:58 32.00866 130.61948 36396 ft 455 kts 189°
2026-04-25 16:58 31.97752 130.61577 36656 ft 455 kts 189°
2026-04-25 16:59 31.94627 130.61204 36897 ft 455 kts 189°
2026-04-25 16:59 31.91455 130.60828 37132 ft 455 kts 189°
2026-04-25 16:59 31.88314 130.60455 37354 ft 455 kts 189°
2026-04-25 16:59 31.85180 130.60086 37555 ft 455 kts 189°
2026-04-25 17:00 31.82027 130.59715 37747 ft 455 kts 189°
2026-04-25 17:00 31.78905 130.59346 37932 ft 455 kts 189°
2026-04-25 17:00 31.75765 130.58939 38052 ft 455 kts 191°
2026-04-25 17:01 31.69532 130.57579 38065 ft 461 kts 197°
2026-04-25 17:01 31.63377 130.55397 38066 ft 461 kts 204°
2026-04-25 17:02 31.57434 130.52714 38065 ft 460 kts 204°
2026-04-25 17:02 31.51453 130.50079 38064 ft 460 kts 204°
2026-04-25 17:03 31.45445 130.47444 38059 ft 460 kts 204°
2026-04-25 17:03 31.39457 130.44817 38052 ft 460 kts 204°
2026-04-25 17:04 31.33470 130.42189 38045 ft 460 kts 204°
2026-04-25 17:04 31.27478 130.39563 38041 ft 460 kts 204°
2026-04-25 17:05 31.21574 130.36827 38039 ft 460 kts 206°
2026-04-25 17:05 31.12710 130.32608 38039 ft 460 kts 205°
2026-04-25 17:06 31.06800 130.29820 38039 ft 460 kts 205°
2026-04-25 17:06 31.00918 130.27063 38039 ft 460 kts 205°
2026-04-25 17:07 30.94975 130.24284 38038 ft 461 kts 204°
2026-04-25 17:07 30.89035 130.21518 38037 ft 462 kts 204°
2026-04-25 17:08 30.83074 130.18764 38038 ft 462 kts 203°
2026-04-25 17:08 30.77138 130.16019 38038 ft 457 kts 203°
2026-04-25 17:09 30.71283 130.13307 38040 ft 456 kts 203°
2026-04-25 17:09 30.65394 130.10579 38039 ft 456 kts 204°
2026-04-25 17:10 30.59478 130.07843 38038 ft 456 kts 203°
2026-04-25 17:10 30.53611 130.05162 38038 ft 456 kts 203°
2026-04-25 17:11 30.47693 130.02502 38039 ft 456 kts 203°
2026-04-25 17:11 30.41802 129.99857 38039 ft 456 kts 203°
2026-04-25 17:12 30.35901 129.97205 38038 ft 457 kts 203°
2026-04-25 17:12 30.29960 129.94641 38039 ft 457 kts 201°
2026-04-25 17:13 30.24987 129.92593 38039 ft 457 kts 201°
2026-04-25 17:13 30.18055 129.89732 38037 ft 457 kts 201°
2026-04-25 17:14 30.12067 129.87253 38038 ft 457 kts 201°
2026-04-25 17:14 30.06115 129.84790 38038 ft 457 kts 201°
2026-04-25 17:15 30.00134 129.82297 38039 ft 457 kts 203°
2026-04-25 17:15 29.94253 129.79587 38037 ft 457 kts 204°
2026-04-25 17:16 29.88389 129.76880 38034 ft 457 kts 204°
2026-04-25 17:16 29.82507 129.74185 38029 ft 457 kts 204°
2026-04-25 17:17 29.76599 129.71474 38021 ft 457 kts 204°
2026-04-25 17:17 29.70751 129.68788 38016 ft 456 kts 204°
2026-04-25 17:18 29.64863 129.66087 38013 ft 456 kts 204°
2026-04-25 17:18 29.58990 129.63394 38011 ft 456 kts 204°
2026-04-25 17:19 29.53111 129.60702 38013 ft 456 kts 204°
2026-04-25 17:19 29.47245 129.58022 38012 ft 456 kts 204°
2026-04-25 17:20 29.41353 129.55328 38012 ft 456 kts 204°
2026-04-25 17:20 29.35493 129.52658 38012 ft 456 kts 204°
2026-04-25 17:21 29.29569 129.50162 38012 ft 457 kts 201°
2026-04-25 17:21 29.23581 129.47728 38011 ft 457 kts 201°
2026-04-25 17:22 29.18623 129.45711 38013 ft 457 kts 201°
2026-04-25 17:22 29.11677 129.42885 38012 ft 457 kts 201°
2026-04-25 17:23 29.05718 129.40462 38013 ft 456 kts 202°
2026-04-25 17:23 28.99749 129.38040 38013 ft 455 kts 202°
2026-04-25 17:24 28.93885 129.35538 38013 ft 453 kts 204°
2026-04-25 17:24 28.88008 129.32919 38013 ft 453 kts 203°
2026-04-25 17:25 28.82149 129.30328 38012 ft 453 kts 203°
2026-04-25 17:25 28.76302 129.27762 38012 ft 453 kts 203°
2026-04-25 17:26 28.70448 129.25200 38012 ft 453 kts 203°
2026-04-25 17:26 28.64581 129.22635 38012 ft 453 kts 203°
2026-04-25 17:27 28.58706 129.20070 38012 ft 453 kts 203°
2026-04-25 17:27 28.53840 129.17949 38012 ft 453 kts 203°
2026-04-25 17:28 28.46977 129.14960 38012 ft 453 kts 203°
2026-04-25 17:28 28.41104 129.12407 38012 ft 453 kts 203°
2026-04-25 17:29 28.35198 129.09847 38012 ft 453 kts 203°
2026-04-25 17:29 28.29332 129.07309 38012 ft 453 kts 202°
2026-04-25 17:30 28.23473 129.04776 38012 ft 453 kts 202°
2026-04-25 17:30 28.17595 129.02237 38012 ft 452 kts 202°
2026-04-25 17:31 28.11748 128.99641 38012 ft 452 kts 204°
2026-04-25 17:31 28.05937 128.96965 38012 ft 452 kts 204°
2026-04-25 17:32 28.00127 128.94302 38012 ft 451 kts 204°
2026-04-25 17:32 27.94308 128.91646 38012 ft 451 kts 204°
2026-04-25 17:33 27.88494 128.89020 38012 ft 451 kts 202°
2026-04-25 17:33 27.82617 128.86534 38012 ft 451 kts 202°
2026-04-25 17:34 27.76750 128.84061 38012 ft 451 kts 202°
2026-04-25 17:34 27.73870 128.82843 37887 ft 447 kts 202°
2026-04-25 17:34 27.70966 128.81613 37427 ft 444 kts 202°
2026-04-25 17:35 27.68104 128.80397 36856 ft 442 kts 202°
2026-04-25 17:35 27.65220 128.79173 36334 ft 438 kts 202°
2026-04-25 17:35 27.62400 128.77977 35859 ft 433 kts 202°
2026-04-25 17:35 27.59587 128.76784 35374 ft 429 kts 202°
2026-04-25 17:36 27.56797 128.75600 34876 ft 426 kts 202°
2026-04-25 17:36 27.54074 128.74448 34390 ft 422 kts 202°
2026-04-25 17:36 27.51313 128.73244 33892 ft 418 kts 205°
2026-04-25 17:36 27.48747 128.71831 33410 ft 414 kts 211°
2026-04-25 17:37 27.46322 128.70131 32943 ft 409 kts 217°
2026-04-25 17:37 27.44088 128.68184 32477 ft 404 kts 222°
2026-04-25 17:37 27.42078 128.66037 32017 ft 400 kts 227°
2026-04-25 17:37 27.40280 128.63698 31555 ft 397 kts 233°
2026-04-25 17:38 27.38697 128.61180 31088 ft 393 kts 238°
2026-04-25 17:38 27.37746 128.59430 30777 ft 391 kts 239°
2026-04-25 17:38 27.35950 128.56014 30174 ft 387 kts 239°
2026-04-25 17:38 27.34586 128.53410 29707 ft 385 kts 239°
2026-04-25 17:39 27.33225 128.50816 29238 ft 382 kts 239°
2026-04-25 17:39 27.31892 128.48282 28778 ft 379 kts 239°
2026-04-25 17:39 27.30547 128.45728 28313 ft 377 kts 239°
2026-04-25 17:39 27.29220 128.43211 27857 ft 374 kts 238°
2026-04-25 17:40 27.27900 128.40710 27400 ft 372 kts 238°
2026-04-25 17:40 27.26593 128.38235 26941 ft 369 kts 238°
2026-04-25 17:40 27.25277 128.35745 26475 ft 367 kts 238°
2026-04-25 17:40 27.23964 128.33260 26011 ft 365 kts 238°
2026-04-25 17:41 27.22671 128.30803 25549 ft 363 kts 238°
2026-04-25 17:41 27.21390 128.28375 25094 ft 361 kts 237°
2026-04-25 17:41 27.20104 128.25943 24632 ft 358 kts 237°
2026-04-25 17:41 27.18828 128.23532 24172 ft 356 kts 237°
2026-04-25 17:42 27.17555 128.21133 23712 ft 355 kts 237°
2026-04-25 17:42 27.16288 128.18749 23258 ft 352 kts 237°
2026-04-25 17:42 27.15052 128.16422 22810 ft 351 kts 237°
2026-04-25 17:42 27.13812 128.14088 22357 ft 349 kts 237°
2026-04-25 17:43 27.12577 128.11768 21909 ft 347 kts 237°
2026-04-25 17:43 27.11329 128.09421 21460 ft 345 kts 237°
2026-04-25 17:43 27.10107 128.07124 21130 ft 339 kts 237°
2026-04-25 17:43 27.08917 128.04889 20754 ft 335 kts 237°
2026-04-25 17:44 27.07730 128.02663 20320 ft 334 kts 237°
2026-04-25 17:44 27.06544 128.00441 19876 ft 332 kts 236°
2026-04-25 17:44 27.05368 127.98237 19440 ft 331 kts 236°
2026-04-25 17:44 27.04185 127.96022 19004 ft 329 kts 236°
2026-04-25 17:45 27.02935 127.93877 18561 ft 326 kts 227°
2026-04-25 17:45 27.01893 127.92677 18254 ft 322 kts 217°
2026-04-25 17:45 26.99371 127.90989 17637 ft 317 kts 197°
2026-04-25 17:45 26.97233 127.90401 17169 ft 313 kts 183°
2026-04-25 17:46 26.95080 127.90349 16721 ft 311 kts 176°
2026-04-25 17:46 26.92948 127.90427 16289 ft 310 kts 176°
2026-04-25 17:46 26.90806 127.90514 15860 ft 309 kts 175°
2026-04-25 17:46 26.88658 127.90596 15433 ft 308 kts 175°
2026-04-25 17:47 26.86564 127.90668 15019 ft 307 kts 176°
2026-04-25 17:47 26.84455 127.90738 14611 ft 305 kts 176°
2026-04-25 17:47 26.82402 127.90802 14220 ft 304 kts 176°
2026-04-25 17:47 26.80497 127.90860 13856 ft 302 kts 175°
2026-04-25 17:48 26.76374 127.90984 13064 ft 299 kts 175°
2026-04-25 17:48 26.74159 127.91049 12637 ft 297 kts 175°
2026-04-25 17:48 26.72099 127.91110 12240 ft 296 kts 175°
2026-04-25 17:49 26.70089 127.91170 11852 ft 294 kts 175°
2026-04-25 17:49 26.68072 127.91230 11460 ft 293 kts 175°
2026-04-25 17:49 26.66044 127.91291 11109 ft 291 kts 175°
2026-04-25 17:49 26.64038 127.91351 11022 ft 291 kts 175°
2026-04-25 17:50 26.62694 127.91393 11029 ft 292 kts 175°
2026-04-25 17:50 26.59995 127.91474 11032 ft 292 kts 175°
2026-04-25 17:50 26.57965 127.91534 11033 ft 292 kts 175°
2026-04-25 17:50 26.56036 127.91591 11033 ft 292 kts 175°
2026-04-25 17:51 26.54008 127.91650 11033 ft 293 kts 175°
2026-04-25 17:51 26.51999 127.91708 10967 ft 289 kts 175°
2026-04-25 17:51 26.49999 127.91767 10565 ft 289 kts 175°
2026-04-25 17:51 26.47983 127.91827 10108 ft 290 kts 175°
2026-04-25 17:52 26.46002 127.91887 9709 ft 289 kts 176°
2026-04-25 17:52 26.45323 127.91908 9574 ft 289 kts 176°
2026-04-25 17:52 26.41979 127.92009 8908 ft 288 kts 176°
2026-04-25 17:52 26.39992 127.91991 8504 ft 289 kts 185°
2026-04-25 17:53 26.38036 127.91490 8101 ft 290 kts 199°
2026-04-25 17:53 26.36184 127.90609 7726 ft 289 kts 203°
2026-04-25 17:53 26.34378 127.89668 7357 ft 288 kts 204°
2026-04-25 17:53 26.32586 127.88726 6993 ft 286 kts 204°
2026-04-25 17:54 26.30779 127.87785 6628 ft 284 kts 204°
2026-04-25 17:54 26.29001 127.86865 6270 ft 283 kts 204°
2026-04-25 17:54 26.27204 127.85941 5909 ft 281 kts 204°
2026-04-25 17:54 26.25438 127.85036 5555 ft 279 kts 204°
2026-04-25 17:55 26.23709 127.84152 5209 ft 277 kts 203°
2026-04-25 17:55 26.21948 127.83252 4859 ft 275 kts 203°
2026-04-25 17:55 26.20233 127.82376 4521 ft 273 kts 203°
2026-04-25 17:55 26.18529 127.81507 4216 ft 269 kts 203°
2026-04-25 17:56 26.16849 127.80650 4045 ft 260 kts 203°
2026-04-25 17:56 26.15222 127.79820 4015 ft 258 kts 203°
2026-04-25 17:56 26.13593 127.78992 4002 ft 257 kts 203°
2026-04-25 17:56 26.11943 127.78153 4002 ft 257 kts 203°
2026-04-25 17:57 26.10364 127.77349 3904 ft 249 kts 203°
2026-04-25 17:57 26.08810 127.76558 3674 ft 244 kts 203°
2026-04-25 17:57 26.07270 127.75776 3361 ft 242 kts 203°
2026-04-25 17:57 26.06752 127.75511 3252 ft 242 kts 205°
2026-04-25 17:58 26.05007 127.73270 2900 ft 235 kts 258°
2026-04-25 17:58 26.04877 127.71493 2752 ft 227 kts 268°
2026-04-25 17:58 26.04847 127.69769 2604 ft 220 kts 268°
2026-04-25 17:58 26.04813 127.68092 2456 ft 212 kts 267°
2026-04-25 17:59 26.04768 127.66460 2298 ft 204 kts 267°
2026-04-25 17:59 26.04753 127.64917 2128 ft 196 kts 280°
2026-04-25 17:59 26.05406 127.63674 2011 ft 190 kts 331°
2026-04-25 17:59 26.06684 127.63380 2026 ft 191 kts
2026-04-25 18:00 26.07561 127.63486 2003 ft 190 kts
2026-04-25 18:00 26.08839 127.63635 1771 ft 184 kts
2026-04-25 18:00 26.10515 127.63699 1448 ft 178 kts
2026-04-25 18:00 26.11714 127.63662 1211 ft 166 kts 359°
2026-04-25 18:01 26.12841 127.63598 1000 ft 162 kts 358°
2026-04-25 18:01 26.13967 127.63539 797 ft 161 kts 359°
2026-04-25 18:01 26.15076 127.63488 593 ft 161 kts 359°
2026-04-25 18:01 26.16190 127.63439 409 ft 160 kts 359°
2026-04-25 18:02 26.17313 127.63385 160 ft 159 kts 357°
2026-04-25 18:02 26.18392 127.63332 18 ft 147 kts 359°
2026-04-25 18:02 26.19254 127.63291 17 ft 98 kts 357°
2026-04-25 18:02 26.19758 127.63264 18 ft 46 kts 357°
2026-04-25 18:03 26.20060 127.63251 18 ft 39 kts 357°
2026-04-25 18:03 26.20200 127.63244 18 ft 7 kts 357°
2026-04-25 18:03 26.20262 127.63245 18 ft 8 kts 22°
2026-04-25 18:03 26.20293 127.63328 18 ft 20 kts 85°
2026-04-25 18:04 26.20301 127.63501 18 ft 23 kts 88°
2026-04-25 18:04 26.20308 127.63688 18 ft 24 kts 88°
2026-04-25 18:04 26.20316 127.63880 18 ft 25 kts 87°
2026-04-25 18:04 26.20324 127.64082 19 ft 26 kts 88°
2026-04-25 18:05 26.20333 127.64260 34 ft 16 kts 78°
2026-04-25 18:05 26.20401 127.64311 33 ft 18 kts
2026-04-25 18:05 26.20565 127.64315 31 ft 22 kts 20°
2026-04-25 18:05 26.20622 127.64459 31 ft 22 kts 88°
2026-04-25 18:06 26.20628 127.64637 31 ft 23 kts 88°
2026-04-25 18:06 26.20675 127.64735 31 ft 10 kts
2026-04-25 18:06 26.20809 127.64736 32 ft 24 kts 358°
2026-04-25 18:06 26.20953 127.64740 32 ft 16 kts 26°
2026-04-25 18:07 26.20999 127.64843 34 ft 14 kts 86°
2026-04-25 18:07 26.21004 127.64925 36 ft 7 kts 87°
2026-04-25 18:07 26.21005 127.64959 37 ft 2 kts 88°
2026-04-25 18:07 26.21005 127.64960 37 ft 0 kts 88°